{"data":{"norad_id":46753,"epoch":"2026-06-28T04:52:37.369920Z","epoch_age_seconds":7305170,"freshness":"OLD","line1":"1 46753U 20074Q   26179.20321030  .12923564  12549-4  22008-3 0  9996","line2":"2 46753  53.0194  88.2924 0009282 264.1548  95.8444 16.47266339314697","mean_motion":16.47266339,"eccentricity":0.0009282,"inclination_deg":53.0194,"raan_deg":88.2924,"arg_perigee_deg":264.1548,"mean_anomaly_deg":95.8444,"bstar":0.00022008,"rev_number":31469,"period_min":87.417557556247,"perigee_km":140.48792181481,"apogee_km":152.6003398661,"semimajor_km":6524.6811308405,"source":"CELESTRAK","updated_at":"2026-06-28T09:00:27.518195Z"}}